Weather History for Perry, IA

Change the Weather History Date:

Sunday, April 8, 2012

  Actual Average Record
Temperature  
Mean Temperature 52 °F -  
Max Temperature 71 °F 59 °F 81 °F (1991)
Min Temperature 32 °F 35 °F 20 °F (1972)
Degree Days  
Heating Degree Days 14    
Growing Degree Days 2 (Base 50)    
Moisture  
Dew Point 31 °F    
Average Humidity 50    
Maximum Humidity 92    
Minimum Humidity 25    
Precipitation  
Precipitation 0.00 in - - ()
Sea Level Pressure  
Sea Level Pressure 30.24 in    
Wind  
Wind Speed 10 mph (WSW)    
Max Wind Speed 23 mph    
Max Gust Speed 34 mph    
Visibility 10 miles    
Events      
Averages and records for this station are not official NWS values.
T = Trace of Precipitation, MM = Missing Value Source: NWS Daily Summary

Daily Weather History Graph

Daily Weather History Graph

Search for Another Location

Airport:

Trip Planner

Search our weather history database for the weather conditions in past years. The results will help you decide how hot, cold, wet, or windy it might be!

Date:

Astronomy

Apr. 08, 2012 Rise Set
Actual Time 6:46 AM CDT 7:50 PM CDT
Civil Twilight 6:18 AM CDT 8:18 PM CDT
Nautical Twilight 5:44 AM CDT 8:53 PM CDT
Astronomical Twilight 5:09 AM CDT 9:28 PM CDT
Moon 10:41 PM CDT (4/8) 7:41 AM CDT (4/8)
Length of Visible Light 14h 00m
Length of Day
13h 03m
Waning Gibbous, 95% of the Moon is Illuminated
Apr 8
Waning Gibbous
Apr 13
Last Quarter
Apr 21
New
Apr 29
First Quarter
May 5
Full

Hourly Weather History & Observations

Time (CDT) Temp. Windchill Dew Point Humidity Pressure Visibility Wind Dir Wind Speed Gust Speed Precip Events Conditions
12:15 AM 37.2 °F 31.9 °F 29.3 °F 73% 30.31 in 10.0 mi West 6.9 mph - N/A   Clear
12:35 AM 36.7 °F 30.5 °F 29.3 °F 75% 30.31 in 10.0 mi West 8.1 mph - N/A   Clear
12:55 AM 37.4 °F 30.8 °F 29.5 °F 73% 30.31 in 10.0 mi West 9.2 mph - N/A   Clear
1:15 AM 37.6 °F 31.0 °F 29.5 °F 73% 30.31 in 10.0 mi West 9.2 mph - N/A   Clear
1:35 AM 37.6 °F 30.5 °F 29.7 °F 73% 30.32 in 10.0 mi West 10.4 mph - N/A   Clear
1:55 AM 35.6 °F 29.9 °F 29.3 °F 78% 30.31 in 10.0 mi West 6.9 mph - N/A   Clear
2:15 AM 36.5 °F 31.0 °F 29.3 °F 75% 30.31 in 10.0 mi West 6.9 mph - N/A   Clear
3:15 AM 35.4 °F 29.0 °F 28.9 °F 77% 30.30 in 10.0 mi West 8.1 mph - N/A   Clear
3:35 AM 36.1 °F 32.3 °F 28.6 °F 74% 30.30 in 10.0 mi West 4.6 mph - N/A   Clear
3:55 AM 32.5 °F 29.3 °F 28.4 °F 85% 30.29 in 10.0 mi SSW 3.5 mph - N/A   Clear
4:35 AM 34.0 °F 28.0 °F 29.3 °F 83% 30.31 in 10.0 mi WSW 6.9 mph - N/A   Clear
4:55 AM 32.4 °F 26.9 °F 29.3 °F 88% 30.31 in 10.0 mi SW 5.8 mph - N/A   Clear
5:15 AM 32.2 °F - 30.0 °F 92% 30.32 in 10.0 mi Calm Calm - N/A   Clear
5:35 AM 34.0 °F 28.0 °F 29.3 °F 83% 30.32 in 10.0 mi WSW 6.9 mph - N/A   Clear
5:55 AM 34.2 °F 28.2 °F 29.8 °F 84% 30.33 in 10.0 mi WSW 6.9 mph - N/A   Clear
6:15 AM 32.4 °F 25.3 °F 28.8 °F 87% 30.34 in 10.0 mi West 8.1 mph - N/A   Clear
6:35 AM 32.0 °F 24.8 °F 28.8 °F 88% 30.34 in 10.0 mi West 8.1 mph - N/A   Clear
6:55 AM 33.3 °F 27.9 °F 29.3 °F 85% 30.34 in 10.0 mi West 5.8 mph - N/A   Clear
7:15 AM 34.9 °F 32.0 °F 30.2 °F 83% 30.34 in 10.0 mi WSW 3.5 mph - N/A   Clear
7:35 AM 35.6 °F - 31.6 °F 85% 30.35 in 10.0 mi Calm Calm - N/A   Clear
7:55 AM 39.2 °F - 32.4 °F 76% 30.35 in 10.0 mi Calm Calm - N/A   Clear
8:15 AM 43.7 °F 40.3 °F 34.0 °F 69% 30.35 in 10.0 mi SW 5.8 mph - N/A   Clear
8:35 AM 48.0 °F - 34.0 °F 58% 30.34 in 10.0 mi WSW 8.1 mph - N/A   Clear
8:55 AM 51.3 °F - 32.0 °F 48% 30.34 in 10.0 mi WSW 11.5 mph - N/A   Clear
9:15 AM 53.8 °F - 32.0 °F 44% 30.34 in 10.0 mi WSW 13.8 mph - N/A   Clear
9:35 AM 55.4 °F - 31.8 °F 41% 30.34 in 10.0 mi WSW 16.1 mph - N/A   Clear
10:15 AM 59.0 °F - 32.0 °F 36% 30.33 in 10.0 mi SW 17.3 mph 21.9 mph N/A   Clear
10:35 AM 60.6 °F - 31.5 °F 33% 30.32 in 10.0 mi SSW 16.1 mph - N/A   Clear
10:55 AM 61.3 °F - 31.3 °F 32% 30.32 in 10.0 mi WSW 17.3 mph - N/A   Clear
11:15 AM 61.7 °F - 32.2 °F 33% 30.31 in 10.0 mi SW 13.8 mph 21.9 mph N/A   Clear
11:35 AM 61.9 °F - 32.0 °F 33% 30.31 in 10.0 mi SW 13.8 mph 17.3 mph N/A   Clear
11:55 AM 62.2 °F - 32.4 °F 33% 30.29 in 10.0 mi SW 13.8 mph 18.4 mph N/A   Clear
12:15 PM 63.3 °F - 33.4 °F 33% 30.27 in 10.0 mi SW 11.5 mph 16.1 mph N/A   Clear
12:35 PM 63.9 °F - 32.2 °F 31% 30.26 in 10.0 mi WSW 10.4 mph 16.1 mph N/A   Clear
12:55 PM 65.5 °F - 33.3 °F 30% 30.24 in 10.0 mi SW 9.2 mph 16.1 mph N/A   Clear
1:35 PM 66.9 °F - 33.8 °F 29% 30.22 in 10.0 mi SW 16.1 mph 29.9 mph N/A   Clear
2:15 PM 68.5 °F - 33.4 °F 27% 30.21 in 10.0 mi SW 23.0 mph 29.9 mph N/A   Clear
2:55 PM 69.6 °F - 32.2 °F 25% 30.18 in 10.0 mi West 20.7 mph 33.4 mph N/A   Clear
3:35 PM 69.8 °F - 32.4 °F 25% 30.16 in 10.0 mi SW 23.0 mph 34.5 mph N/A   Scattered Clouds
4:15 PM 69.6 °F - 33.4 °F 26% 30.14 in 10.0 mi WSW 23.0 mph 32.2 mph N/A   Scattered Clouds
4:35 PM 71.2 °F - 34.9 °F 26% 30.13 in 10.0 mi WSW 21.9 mph 33.4 mph N/A   Scattered Clouds
4:55 PM 69.1 °F - 34.0 °F 27% 30.12 in 10.0 mi WSW 19.6 mph 28.8 mph N/A   Mostly Cloudy
5:15 PM 68.4 °F - 34.0 °F 28% 30.11 in 10.0 mi West 19.6 mph 24.2 mph N/A   Overcast
5:35 PM 68.2 °F - 34.0 °F 28% 30.10 in 10.0 mi WSW 17.3 mph 26.5 mph N/A   Mostly Cloudy
5:55 PM 68.2 °F - 34.7 °F 29% 30.09 in 10.0 mi WSW 23.0 mph 28.8 mph N/A   Mostly Cloudy
6:15 PM 68.2 °F - 35.4 °F 30% 30.09 in 10.0 mi WSW 20.7 mph 24.2 mph N/A   Mostly Cloudy
6:35 PM 68.5 °F - 36.1 °F 30% 30.08 in 10.0 mi SW 17.3 mph - N/A   Mostly Cloudy
6:55 PM 66.9 °F - 36.0 °F 32% 30.07 in 10.0 mi SW 16.1 mph 20.7 mph N/A   Mostly Cloudy
7:15 PM 65.5 °F - 36.1 °F 34% 30.07 in 10.0 mi WSW 15.0 mph - N/A   Overcast
7:35 PM 66.4 °F - 34.7 °F 31% 30.09 in 10.0 mi NW 12.7 mph 28.8 mph N/A   Overcast
7:55 PM 63.7 °F - 32.2 °F 31% 30.09 in 10.0 mi NNW 13.8 mph - N/A   Mostly Cloudy
8:15 PM 61.7 °F - 31.5 °F 32% 30.10 in 10.0 mi NW 11.5 mph - N/A   Scattered Clouds
8:35 PM 60.1 °F - 30.2 °F 32% 30.11 in 10.0 mi NNW 10.4 mph - N/A   Scattered Clouds
9:15 PM 56.5 °F - 29.1 °F 35% 30.12 in 10.0 mi NW 9.2 mph - N/A   Clear
10:35 PM 54.9 °F - 27.1 °F 34% 30.14 in 10.0 mi NNW 11.5 mph - N/A   Clear
10:55 PM 54.7 °F - 26.2 °F 33% 30.14 in 10.0 mi NNW 11.5 mph 18.4 mph N/A   Clear
11:15 PM 53.4 °F - 25.5 °F 34% 30.14 in 10.0 mi NNW 10.4 mph - N/A   Clear
11:35 PM 51.1 °F - 25.2 °F 36% 30.15 in 10.0 mi NW 8.1 mph - N/A   Clear
11:55 PM 48.9 °F - 24.4 °F 38% 30.15 in 10.0 mi NW 5.8 mph - N/A   Clear